CUBESX-HSE 3 (RS42S)

Last updated on Mon Sep 15 2025 00:03:09 GMT+0000 (Coordinated Universal Time)

1 57178U 23091N 25257.26098012 .00007797 00000+0 33816-3 0 9995 2 57178 97.5513 315.4006 0012261 351.7240 8.3792 15.22571028122314
UTC large
Height (km)
Speed (km/s)
/
Latitude / Longitude
Inclination (degrees)
Orbital Period (minutes)
Azimuth
Elevation
Range (km)
Doppler Factor

Next 0 passes for location: London (51.5072 / 0.1276)

Sorry there are no passes over London.